Location: Newark
(37.8333°N, 119.5000°W)
Time: 08:56:11
(UTC+00:00)

Tiros 1 despin weight - Pass Details

Date: 02 September 2019
Orbit: 593 x 643 km, 48.2° (Epoch: 21 October)

Event Time Altitude Azimuth Distance (km) Brightness Sun altitude
Rises 02:56:09 0° 232° (SW) 2,819 ? -6.4°
Reaches altitude 10° 02:58:26 10° 231° (SW) 1,917 ? -6.8°
Maximum altitude 03:02:49 80° 146° (SE) 605 ? -7.6°
Drops below altitude 10° 03:07:14 10° 58° (ENE) 1,926 ? -8.5°
Sets 03:09:31 0° 58° (ENE) 2,833 ? -8.9°
Enters shadow 03:09:35 - 58° (ENE) 2,857 ? -8.9°
